Time,TemperatureF,DewpointF,PressureIn,WindDirection,WindDirectionDegrees,WindSpeedMPH,WindSpeedGustMPH,Humidity,HourlyPrecipIn,Conditions,Clouds,dailyrainin,SoftwareType,DateUTC
2013-09-10 00:02:00,57.4,48.0,30.23,SSW,202,0.0,4.0,71,0.00,,,0.00,meteohub,2013-09-10 04:02:00,
2013-09-10 00:07:00,57.4,48.4,30.23,South,180,3.0,4.0,72,0.00,,,0.00,meteohub,2013-09-10 04:07:00,
2013-09-10 00:12:00,57.4,48.4,30.23,South,180,2.0,4.0,72,0.00,,,0.00,meteohub,2013-09-10 04:12:00,
2013-09-10 00:17:00,57.4,48.4,30.23,SW,225,3.0,4.0,72,0.00,,,0.00,meteohub,2013-09-10 04:17:00,
2013-09-10 00:22:00,57.2,48.2,30.23,SSW,202,2.0,4.0,72,0.00,,,0.00,meteohub,2013-09-10 04:22:00,
2013-09-10 00:27:00,57.2,48.6,30.23,South,180,2.0,3.0,73,0.00,,,0.00,meteohub,2013-09-10 04:27:00,
2013-09-10 00:32:00,57.2,48.6,30.23,South,180,0.0,6.0,73,0.00,,,0.00,meteohub,2013-09-10 04:32:00,
2013-09-10 00:37:00,57.2,48.9,30.23,SSW,202,0.0,6.0,74,0.00,,,0.00,meteohub,2013-09-10 04:37:00,
2013-09-10 00:42:00,57.0,48.7,30.23,SSE,158,3.0,6.0,74,0.00,,,0.00,meteohub,2013-09-10 04:42:00,
2013-09-10 00:47:00,57.2,48.9,30.20,SW,225,3.0,3.0,74,0.00,,,0.00,meteohub,2013-09-10 04:47:00,
2013-09-10 00:52:00,57.2,48.9,30.20,South,180,2.0,6.0,74,0.00,,,0.00,meteohub,2013-09-10 04:52:00,
2013-09-10 00:57:00,57.2,48.9,30.20,SSW,202,3.0,6.0,74,0.00,,,0.00,meteohub,2013-09-10 04:57:00,
2013-09-10 01:02:00,57.2,49.3,30.20,NE,45,1.0,6.0,75,0.00,,,0.00,meteohub,2013-09-10 05:02:00,
2013-09-10 01:07:00,57.2,49.3,30.20,SSE,158,1.0,6.0,75,0.00,,,0.00,meteohub,2013-09-10 05:07:00,
2013-09-10 01:12:00,57.2,49.3,30.20,SW,225,0.0,4.0,75,0.00,,,0.00,meteohub,2013-09-10 05:12:00,
2013-09-10 01:17:00,57.0,49.5,30.20,SW,225,1.0,3.0,76,0.00,,,0.00,meteohub,2013-09-10 05:17:00,
2013-09-10 01:22:00,57.0,49.5,30.20,SW,225,3.0,5.0,76,0.00,,,0.00,meteohub,2013-09-10 05:22:00,
2013-09-10 01:27:00,57.0,49.8,30.20,South,180,2.0,5.0,77,0.00,,,0.00,meteohub,2013-09-10 05:27:00,
2013-09-10 01:32:00,57.0,49.5,30.20,SSE,158,1.0,5.0,76,0.00,,,0.00,meteohub,2013-09-10 05:32:00,
2013-09-10 01:37:00,57.0,49.5,30.20,SSW,202,1.0,3.0,76,0.00,,,0.00,meteohub,2013-09-10 05:37:00,
2013-09-10 01:42:00,56.8,50.0,30.20,SW,225,0.0,4.0,78,0.00,,,0.00,meteohub,2013-09-10 05:42:00,
2013-09-10 01:47:00,56.8,50.0,30.20,SW,225,0.0,4.0,78,0.00,,,0.00,meteohub,2013-09-10 05:47:00,
2013-09-10 01:52:00,56.8,49.6,30.20,WSW,248,2.0,4.0,77,0.00,,,0.00,meteohub,2013-09-10 05:52:00,
2013-09-10 01:57:00,56.8,49.6,30.20,South,180,0.0,3.0,77,0.00,,,0.00,meteohub,2013-09-10 05:57:00,
2013-09-10 02:02:00,56.8,50.0,30.23,SSE,158,0.0,3.0,78,0.00,,,0.00,meteohub,2013-09-10 06:02:00,
2013-09-10 02:07:00,56.8,49.6,30.23,SSW,202,1.0,4.0,77,0.00,,,0.00,meteohub,2013-09-10 06:07:00,
2013-09-10 02:12:00,56.8,50.4,30.23,South,180,0.0,4.0,79,0.00,,,0.00,meteohub,2013-09-10 06:12:00,
2013-09-10 02:17:00,57.0,50.9,30.20,SSW,202,0.0,2.0,80,0.00,,,0.00,meteohub,2013-09-10 06:17:00,
2013-09-10 02:22:00,57.2,51.1,30.20,SSW,202,0.0,2.0,80,0.00,,,0.00,meteohub,2013-09-10 06:22:00,
2013-09-10 02:27:00,57.4,50.9,30.20,SSE,158,2.0,2.0,79,0.00,,,0.00,meteohub,2013-09-10 06:27:00,
2013-09-10 02:32:00,57.6,51.1,30.23,South,180,0.0,3.0,79,0.00,,,0.00,meteohub,2013-09-10 06:32:00,
2013-09-10 02:37:00,57.6,50.7,30.23,SSW,202,0.0,3.0,78,0.00,,,0.00,meteohub,2013-09-10 06:37:00,
2013-09-10 02:42:00,57.7,50.9,30.23,SSW,202,0.0,3.0,78,0.00,,,0.00,meteohub,2013-09-10 06:42:00,
2013-09-10 02:47:00,57.9,51.4,30.23,SSW,202,2.0,3.0,79,0.00,,,0.00,meteohub,2013-09-10 06:47:00,
2013-09-10 02:52:00,58.1,51.6,30.23,SSW,202,0.0,3.0,79,0.00,,,0.00,meteohub,2013-09-10 06:52:00,
2013-09-10 02:57:00,58.1,51.6,30.23,SSE,158,0.0,3.0,79,0.00,,,0.00,meteohub,2013-09-10 06:57:00,
2013-09-10 03:02:00,58.3,51.8,30.20,SW,225,2.0,3.0,79,0.00,,,0.00,meteohub,2013-09-10 07:02:00,
2013-09-10 03:07:00,58.3,51.8,30.20,SW,225,1.0,3.0,79,0.00,,,0.00,meteohub,2013-09-10 07:07:00,
2013-09-10 03:12:00,58.5,52.0,30.20,South,180,0.0,3.0,79,0.00,,,0.00,meteohub,2013-09-10 07:12:00,
2013-09-10 03:17:00,58.6,52.2,30.20,SSW,202,3.0,3.0,79,0.00,,,0.00,meteohub,2013-09-10 07:17:00,
2013-09-10 03:22:00,58.6,52.2,30.20,South,180,0.0,4.0,79,0.00,,,0.00,meteohub,2013-09-10 07:22:00,
2013-09-10 03:27:00,58.8,52.3,30.20,West,270,0.0,4.0,79,0.00,,,0.00,meteohub,2013-09-10 07:27:00,
2013-09-10 03:32:00,58.8,52.3,30.20,SSW,202,0.0,3.0,79,0.00,,,0.00,meteohub,2013-09-10 07:32:00,
2013-09-10 03:37:00,58.8,52.3,30.20,SSW,202,0.0,4.0,79,0.00,,,0.00,meteohub,2013-09-10 07:37:00,
2013-09-10 03:42:00,59.0,52.5,30.20,SSW,202,1.0,4.0,79,0.00,,,0.00,meteohub,2013-09-10 07:42:00,
2013-09-10 03:47:00,59.0,52.5,30.20,South,180,3.0,3.0,79,0.00,,,0.00,meteohub,2013-09-10 07:47:00,
2013-09-10 03:52:00,59.2,52.7,30.20,South,180,1.0,3.0,79,0.00,,,0.00,meteohub,2013-09-10 07:52:00,
2013-09-10 03:57:00,59.2,52.7,30.20,SSW,202,0.0,3.0,79,0.00,,,0.00,meteohub,2013-09-10 07:57:00,
2013-09-10 04:02:00,59.2,52.7,30.20,South,180,3.0,3.0,79,0.00,,,0.00,meteohub,2013-09-10 08:02:00,
2013-09-10 04:07:00,59.4,52.5,30.20,South,180,0.0,3.0,78,0.00,,,0.00,meteohub,2013-09-10 08:07:00,
2013-09-10 04:12:00,59.4,52.5,30.20,SSW,202,0.0,3.0,78,0.00,,,0.00,meteohub,2013-09-10 08:12:00,
2013-09-10 04:17:00,59.2,52.7,30.20,SSE,158,0.0,3.0,79,0.00,,,0.00,meteohub,2013-09-10 08:17:00,
2013-09-10 04:22:00,59.4,53.2,30.20,SSE,158,2.0,3.0,80,0.00,,,0.00,meteohub,2013-09-10 08:22:00,
2013-09-10 04:27:00,59.4,53.2,30.20,SSW,202,2.0,3.0,80,0.00,,,0.00,meteohub,2013-09-10 08:27:00,
2013-09-10 04:32:00,59.4,53.6,30.20,South,180,1.0,4.0,81,0.00,,,0.00,meteohub,2013-09-10 08:32:00,
2013-09-10 04:37:00,59.4,53.2,30.20,SSW,202,0.0,7.0,80,0.00,,,0.00,meteohub,2013-09-10 08:37:00,
2013-09-10 04:42:00,59.5,53.4,30.20,SSW,202,0.0,7.0,80,0.00,,,0.00,meteohub,2013-09-10 08:42:00,
2013-09-10 04:47:00,59.5,53.8,30.20,SSW,202,1.0,5.0,81,0.00,,,0.00,meteohub,2013-09-10 08:47:00,
2013-09-10 04:52:00,59.7,54.0,30.20,South,180,0.0,4.0,81,0.00,,,0.00,meteohub,2013-09-10 08:52:00,
2013-09-10 04:57:00,59.7,54.0,30.20,South,180,2.0,4.0,81,0.00,,,0.00,meteohub,2013-09-10 08:57:00,
2013-09-10 05:02:00,59.9,54.1,30.20,WSW,248,0.0,4.0,81,0.00,,,0.00,meteohub,2013-09-10 09:02:00,
2013-09-10 05:07:00,59.9,54.3,30.20,SSW,202,0.0,4.0,82,0.00,,,0.00,meteohub,2013-09-10 09:07:00,
2013-09-10 05:12:00,60.1,54.3,30.20,South,180,2.0,6.0,81,0.00,,,0.00,meteohub,2013-09-10 09:12:00,
2013-09-10 05:17:00,60.3,54.5,30.20,WSW,248,1.0,6.0,81,0.00,,,0.00,meteohub,2013-09-10 09:17:00,
2013-09-10 05:22:00,60.3,54.7,30.20,South,180,2.0,6.0,82,0.00,,,0.00,meteohub,2013-09-10 09:22:00,
2013-09-10 05:27:00,60.4,54.9,30.20,South,180,2.0,6.0,82,0.00,,,0.00,meteohub,2013-09-10 09:27:00,
2013-09-10 05:32:00,60.6,54.7,30.20,South,180,3.0,6.0,81,0.00,,,0.00,meteohub,2013-09-10 09:32:00,
2013-09-10 05:37:00,60.6,54.7,30.20,South,180,0.0,6.0,81,0.00,,,0.00,meteohub,2013-09-10 09:37:00,
2013-09-10 05:42:00,60.6,54.7,30.20,South,180,5.0,5.0,81,0.00,,,0.00,meteohub,2013-09-10 09:42:00,
2013-09-10 05:47:00,60.8,55.2,30.20,South,180,2.0,5.0,82,0.00,,,0.00,meteohub,2013-09-10 09:47:00,
2013-09-10 05:52:00,61.0,55.4,30.20,SW,225,0.0,5.0,82,0.00,,,0.00,meteohub,2013-09-10 09:52:00,
2013-09-10 05:57:00,61.0,55.4,30.20,SW,225,0.0,5.0,82,0.00,,,0.00,meteohub,2013-09-10 09:57:00,
2013-09-10 06:02:00,61.2,55.6,30.20,South,180,0.0,4.0,82,0.00,,,0.00,meteohub,2013-09-10 10:02:00,
2013-09-10 06:07:00,61.3,56.1,30.20,SSW,202,2.0,4.0,83,0.00,,,0.00,meteohub,2013-09-10 10:07:00,
2013-09-10 06:12:00,61.5,55.9,30.20,South,180,1.0,6.0,82,0.00,,,0.00,meteohub,2013-09-10 10:12:00,
2013-09-10 06:17:00,61.7,56.1,30.20,SW,225,2.0,6.0,82,0.00,,,0.00,meteohub,2013-09-10 10:17:00,
2013-09-10 06:22:00,61.7,56.1,30.20,SSW,202,0.0,6.0,82,0.00,,,0.00,meteohub,2013-09-10 10:22:00,
2013-09-10 06:27:00,61.9,56.3,30.20,South,180,3.0,6.0,82,0.00,,,0.00,meteohub,2013-09-10 10:27:00,
2013-09-10 06:32:00,61.9,56.3,30.20,South,180,2.0,4.0,82,0.00,,,0.00,meteohub,2013-09-10 10:32:00,
2013-09-10 06:37:00,61.9,56.3,30.20,South,180,1.0,5.0,82,0.00,,,0.00,meteohub,2013-09-10 10:37:00,
2013-09-10 06:42:00,62.1,56.5,30.20,SSE,158,3.0,5.0,82,0.00,,,0.00,meteohub,2013-09-10 10:42:00,
2013-09-10 06:47:00,62.1,56.5,30.20,SW,225,2.0,5.0,82,0.00,,,0.00,meteohub,2013-09-10 10:47:00,
2013-09-10 06:52:00,62.2,56.7,30.20,West,270,3.0,5.0,82,0.00,,,0.00,meteohub,2013-09-10 10:52:00,
2013-09-10 06:57:00,62.4,56.8,30.20,SW,225,1.0,5.0,82,0.00,,,0.00,meteohub,2013-09-10 10:57:00,
2013-09-10 07:02:00,62.4,56.8,30.20,SSE,158,3.0,5.0,82,0.00,,,0.00,meteohub,2013-09-10 11:02:00,
2013-09-10 07:07:00,62.6,57.0,30.20,SW,225,2.0,7.0,82,0.00,,,0.00,meteohub,2013-09-10 11:07:00,
2013-09-10 07:12:00,62.6,57.0,30.20,WSW,248,3.0,7.0,82,0.00,,,0.00,meteohub,2013-09-10 11:12:00,
2013-09-10 07:17:00,62.8,57.2,30.20,South,180,1.0,6.0,82,0.00,,,0.00,meteohub,2013-09-10 11:17:00,
2013-09-10 07:22:00,62.8,57.2,30.20,West,270,2.0,6.0,82,0.00,,,0.00,meteohub,2013-09-10 11:22:00,
2013-09-10 07:27:00,63.0,57.4,30.20,West,270,4.0,7.0,82,0.00,,,0.00,meteohub,2013-09-10 11:27:00,
2013-09-10 07:32:00,63.0,57.4,30.20,WSW,248,3.0,7.0,82,0.00,,,0.00,meteohub,2013-09-10 11:32:00,
2013-09-10 07:37:00,63.1,57.6,30.20,SW,225,5.0,7.0,82,0.00,,,0.00,meteohub,2013-09-10 11:37:00,
2013-09-10 07:42:00,63.1,57.9,30.20,ESE,112,3.0,7.0,83,0.00,,,0.00,meteohub,2013-09-10 11:42:00,
2013-09-10 07:47:00,63.1,57.9,30.20,SSW,202,1.0,7.0,83,0.00,,,0.00,meteohub,2013-09-10 11:47:00,
2013-09-10 07:52:00,63.0,58.1,30.20,South,180,3.0,7.0,84,0.00,,,0.00,meteohub,2013-09-10 11:52:00,
2013-09-10 07:57:00,63.0,58.1,30.20,South,180,2.0,6.0,84,0.00,,,0.00,meteohub,2013-09-10 11:57:00,
2013-09-10 08:02:00,63.1,58.6,30.20,South,180,4.0,6.0,85,0.00,,,0.00,meteohub,2013-09-10 12:02:00,
2013-09-10 08:07:00,63.1,58.6,30.20,South,180,6.0,6.0,85,0.00,,,0.00,meteohub,2013-09-10 12:07:00,
2013-09-10 08:12:00,63.1,58.8,30.20,SSE,158,3.0,6.0,86,0.00,,,0.00,meteohub,2013-09-10 12:12:00,
2013-09-10 08:17:00,63.1,58.8,30.20,SSW,202,3.0,6.0,86,0.00,,,0.00,meteohub,2013-09-10 12:17:00,
2013-09-10 08:22:00,63.1,58.8,30.20,South,180,3.0,7.0,86,0.00,,,0.00,meteohub,2013-09-10 12:22:00,
2013-09-10 08:27:00,63.3,59.4,30.20,SSW,202,3.0,7.0,87,0.00,,,0.00,meteohub,2013-09-10 12:27:00,
2013-09-10 08:32:00,63.3,59.4,30.17,SSE,158,3.0,7.0,87,0.00,,,0.00,meteohub,2013-09-10 12:32:00,
2013-09-10 08:37:00,63.3,59.4,30.17,WSW,248,4.0,5.0,87,0.00,,,0.00,meteohub,2013-09-10 12:37:00,
2013-09-10 08:42:00,63.3,59.4,30.17,NNW,338,2.0,6.0,87,0.00,,,0.00,meteohub,2013-09-10 12:42:00,
2013-09-10 08:47:00,63.5,59.5,30.20,SSE,158,1.0,6.0,87,0.00,,,0.00,meteohub,2013-09-10 12:47:00,
2013-09-10 08:52:00,63.7,59.7,30.20,SW,225,5.0,5.0,87,0.00,,,0.00,meteohub,2013-09-10 12:52:00,
2013-09-10 08:57:00,63.9,59.9,30.20,West,270,3.0,6.0,87,0.00,,,0.00,meteohub,2013-09-10 12:57:00,
2013-09-10 09:02:00,63.9,59.9,30.20,SSE,158,2.0,6.0,87,0.00,,,0.00,meteohub,2013-09-10 13:02:00,
2013-09-10 09:07:00,64.2,59.9,30.20,South,180,3.0,8.0,86,0.00,,,0.00,meteohub,2013-09-10 13:07:00,
2013-09-10 09:12:00,64.4,60.1,30.20,SSW,202,2.0,9.0,86,0.00,,,0.00,meteohub,2013-09-10 13:12:00,
2013-09-10 09:17:00,64.4,59.7,30.20,WSW,248,3.0,9.0,85,0.00,,,0.00,meteohub,2013-09-10 13:17:00,
2013-09-10 09:22:00,64.6,59.9,30.20,SE,135,3.0,9.0,85,0.00,,,0.00,meteohub,2013-09-10 13:22:00,
2013-09-10 09:27:00,64.8,60.1,30.20,South,180,3.0,7.0,85,0.00,,,0.00,meteohub,2013-09-10 13:27:00,
2013-09-10 09:32:00,64.8,60.4,30.17,SW,225,3.0,10.0,86,0.00,,,0.00,meteohub,2013-09-10 13:32:00,
2013-09-10 09:37:00,64.9,60.3,30.17,WSW,248,9.0,10.0,85,0.00,,,0.00,meteohub,2013-09-10 13:37:00,
2013-09-10 09:42:00,65.1,60.8,30.17,SSE,158,3.0,10.0,86,0.00,,,0.00,meteohub,2013-09-10 13:42:00,
2013-09-10 09:47:00,65.3,61.0,30.17,SSE,158,2.0,9.0,86,0.00,,,0.00,meteohub,2013-09-10 13:47:00,
2013-09-10 09:52:00,65.3,60.6,30.17,SW,225,2.0,9.0,85,0.00,,,0.00,meteohub,2013-09-10 13:52:00,
2013-09-10 09:57:00,65.3,61.0,30.17,WSW,248,3.0,8.0,86,0.00,,,0.00,meteohub,2013-09-10 13:57:00,
2013-09-10 10:02:00,65.5,61.5,30.17,South,180,4.0,10.0,87,0.00,,,0.00,meteohub,2013-09-10 14:02:00,
2013-09-10 10:07:00,65.3,61.0,30.17,SW,225,6.0,10.0,86,0.00,,,0.00,meteohub,2013-09-10 14:07:00,
2013-09-10 10:12:00,65.3,61.3,30.17,SSE,158,1.0,10.0,87,0.00,,,0.00,meteohub,2013-09-10 14:12:00,
2013-09-10 10:17:00,65.5,61.5,30.20,South,180,1.0,10.0,87,0.00,,,0.00,meteohub,2013-09-10 14:17:00,
2013-09-10 10:22:00,65.5,61.5,30.20,SW,225,4.0,8.0,87,0.00,,,0.00,meteohub,2013-09-10 14:22:00,
2013-09-10 10:27:00,65.7,62.1,30.20,South,180,4.0,8.0,88,0.00,,,0.00,meteohub,2013-09-10 14:27:00,
2013-09-10 10:32:00,65.8,62.2,30.20,SSW,202,7.0,7.0,88,0.00,,,0.00,meteohub,2013-09-10 14:32:00,
2013-09-10 10:37:00,66.0,62.4,30.20,WSW,248,6.0,11.0,88,0.00,,,0.00,meteohub,2013-09-10 14:37:00,
2013-09-10 10:42:00,66.2,62.2,30.20,SSW,202,4.0,11.0,87,0.00,,,0.00,meteohub,2013-09-10 14:42:00,
2013-09-10 10:47:00,66.6,63.0,30.17,WSW,248,3.0,11.0,88,0.00,,,0.00,meteohub,2013-09-10 14:47:00,
2013-09-10 10:52:00,66.7,62.8,30.17,SW,225,3.0,9.0,87,0.00,,,0.00,meteohub,2013-09-10 14:52:00,
2013-09-10 10:57:00,66.7,62.8,30.17,WSW,248,3.0,11.0,87,0.00,,,0.00,meteohub,2013-09-10 14:57:00,
2013-09-10 11:02:00,66.7,62.8,30.17,SSE,158,4.0,11.0,87,0.00,,,0.00,meteohub,2013-09-10 15:02:00,
2013-09-10 11:07:00,66.7,63.1,30.17,SSE,158,5.0,10.0,88,0.00,,,0.00,meteohub,2013-09-10 15:07:00,
2013-09-10 11:12:00,66.6,63.0,30.17,WNW,292,3.0,13.0,88,0.00,,,0.00,meteohub,2013-09-10 15:12:00,
2013-09-10 11:17:00,66.6,63.1,30.17,SW,225,2.0,13.0,89,0.00,,,0.00,meteohub,2013-09-10 15:17:00,
2013-09-10 11:22:00,66.6,63.1,30.17,WSW,248,4.0,13.0,89,0.00,,,0.00,meteohub,2013-09-10 15:22:00,
2013-09-10 11:27:00,66.6,63.5,30.17,SSW,202,1.0,7.0,90,0.00,,,0.00,meteohub,2013-09-10 15:27:00,
2013-09-10 11:32:00,66.6,63.5,30.17,SSE,158,4.0,9.0,90,0.00,,,0.00,meteohub,2013-09-10 15:32:00,
2013-09-10 11:37:00,66.6,63.9,30.17,SW,225,5.0,9.0,91,0.00,,,0.00,meteohub,2013-09-10 15:37:00,
2013-09-10 11:42:00,66.6,64.2,30.17,WNW,292,4.0,17.0,92,0.00,,,0.00,meteohub,2013-09-10 15:42:00,
2013-09-10 11:47:00,66.4,64.0,30.17,South,180,4.0,17.0,92,0.00,,,0.00,meteohub,2013-09-10 15:47:00,
2013-09-10 11:52:00,66.4,64.9,30.17,SSW,202,6.0,9.0,95,0.00,,,0.00,meteohub,2013-09-10 15:52:00,
2013-09-10 11:57:00,66.2,64.8,30.17,SW,225,3.0,9.0,95,0.00,,,0.00,meteohub,2013-09-10 15:57:00,
2013-09-10 12:02:00,66.2,65.3,30.12,SSW,202,3.0,8.0,97,0.00,,,0.00,meteohub,2013-09-10 16:02:00,
2013-09-10 12:07:00,66.2,65.3,30.12,East,90,4.0,9.0,97,0.05,,,0.05,meteohub,2013-09-10 16:07:00,
2013-09-10 12:12:00,66.2,65.7,30.12,SSW,202,3.0,10.0,98,0.05,,,0.05,meteohub,2013-09-10 16:12:00,
2013-09-10 12:17:00,66.0,65.5,30.09,South,180,1.0,10.0,98,0.05,,,0.05,meteohub,2013-09-10 16:17:00,
2013-09-10 12:22:00,66.2,65.7,30.09,SSW,202,4.0,10.0,98,0.05,,,0.05,meteohub,2013-09-10 16:22:00,
2013-09-10 12:27:00,66.2,65.7,30.09,SW,225,5.0,10.0,98,0.05,,,0.05,meteohub,2013-09-10 16:27:00,
2013-09-10 12:32:00,66.4,65.8,30.12,SSW,202,2.0,10.0,98,0.05,,,0.05,meteohub,2013-09-10 16:32:00,
2013-09-10 12:37:00,66.6,66.0,30.12,SSW,202,4.0,8.0,98,0.05,,,0.05,meteohub,2013-09-10 16:37:00,
2013-09-10 12:42:00,66.6,66.0,30.12,South,180,0.0,9.0,98,0.05,,,0.05,meteohub,2013-09-10 16:42:00,
2013-09-10 12:47:00,66.7,66.2,30.09,SW,225,3.0,9.0,98,0.09,,,0.09,meteohub,2013-09-10 16:47:00,
2013-09-10 12:52:00,66.9,66.4,30.09,NW,315,2.0,9.0,98,0.09,,,0.09,meteohub,2013-09-10 16:52:00,
2013-09-10 12:57:00,66.9,66.4,30.09,ESE,112,2.0,6.0,98,0.09,,,0.09,meteohub,2013-09-10 16:57:00,
2013-09-10 13:02:00,67.1,66.6,30.12,SSE,158,3.0,6.0,98,0.04,,,0.09,meteohub,2013-09-10 17:02:00,
2013-09-10 13:07:00,67.3,66.7,30.12,NNW,338,0.0,6.0,98,0.04,,,0.09,meteohub,2013-09-10 17:07:00,
2013-09-10 13:12:00,67.5,66.9,30.12,WNW,292,2.0,5.0,98,0.04,,,0.09,meteohub,2013-09-10 17:12:00,
2013-09-10 13:22:00,67.6,67.1,30.12,South,180,1.0,4.0,98,0.04,,,0.09,meteohub,2013-09-10 17:22:00,
2013-09-10 13:27:00,67.6,67.1,30.12,NNE,22,0.0,3.0,98,0.04,,,0.09,meteohub,2013-09-10 17:27:00,
2013-09-10 13:32:00,67.8,67.3,30.12,SW,225,1.0,3.0,98,0.04,,,0.09,meteohub,2013-09-10 17:32:00,
2013-09-10 13:37:00,67.8,67.3,30.12,WSW,248,0.0,3.0,98,0.04,,,0.09,meteohub,2013-09-10 17:37:00,
2013-09-10 13:42:00,68.0,67.5,30.12,South,180,0.0,3.0,98,0.00,,,0.09,meteohub,2013-09-10 17:42:00,
2013-09-10 13:47:00,68.4,67.8,30.09,SSE,158,4.0,4.0,98,0.00,,,0.09,meteohub,2013-09-10 17:47:00,
2013-09-10 13:52:00,68.5,68.0,30.09,West,270,0.0,6.0,98,0.00,,,0.09,meteohub,2013-09-10 17:52:00,
2013-09-10 13:57:00,68.7,68.2,30.09,South,180,3.0,6.0,98,0.00,,,0.09,meteohub,2013-09-10 17:57:00,
2013-09-10 14:02:00,68.7,68.2,30.12,West,270,3.0,6.0,98,0.00,,,0.09,meteohub,2013-09-10 18:02:00,
2013-09-10 14:07:00,69.1,68.2,30.12,WSW,248,6.0,7.0,97,0.00,,,0.09,meteohub,2013-09-10 18:07:00,
2013-09-10 14:12:00,69.3,68.4,30.12,SSW,202,0.0,9.0,97,0.00,,,0.09,meteohub,2013-09-10 18:12:00,
2013-09-10 14:17:00,69.3,68.4,30.12,SSW,202,5.0,9.0,97,0.00,,,0.09,meteohub,2013-09-10 18:17:00,
2013-09-10 14:22:00,69.4,68.2,30.12,SW,225,4.0,9.0,96,0.00,,,0.09,meteohub,2013-09-10 18:22:00,
2013-09-10 14:27:00,69.4,68.2,30.12,South,180,0.0,8.0,96,0.00,,,0.09,meteohub,2013-09-10 18:27:00,
2013-09-10 14:32:00,69.4,68.2,30.09,ESE,112,3.0,8.0,96,0.00,,,0.09,meteohub,2013-09-10 18:32:00,
2013-09-10 14:37:00,69.6,68.4,30.09,West,270,0.0,9.0,96,0.00,,,0.09,meteohub,2013-09-10 18:37:00,
2013-09-10 14:42:00,70.0,68.5,30.09,WNW,292,1.0,9.0,95,0.00,,,0.09,meteohub,2013-09-10 18:42:00,
2013-09-10 14:47:00,70.3,68.9,30.12,WSW,248,2.0,6.0,95,0.00,,,0.09,meteohub,2013-09-10 18:47:00,
2013-09-10 14:52:00,70.7,69.3,30.12,West,270,2.0,6.0,95,0.00,,,0.09,meteohub,2013-09-10 18:52:00,
2013-09-10 14:57:00,71.1,69.3,30.12,South,180,0.0,6.0,94,0.00,,,0.09,meteohub,2013-09-10 18:57:00,
2013-09-10 15:02:00,71.4,69.3,30.12,West,270,2.0,6.0,93,0.00,,,0.09,meteohub,2013-09-10 19:02:00,
2013-09-10 15:07:00,71.6,68.5,30.12,SW,225,1.0,6.0,90,0.00,,,0.09,meteohub,2013-09-10 19:07:00,
2013-09-10 15:12:00,71.6,68.5,30.12,WSW,248,3.0,6.0,90,0.00,,,0.09,meteohub,2013-09-10 19:12:00,
2013-09-10 15:17:00,71.6,68.5,30.12,SSW,202,4.0,10.0,90,0.00,,,0.09,meteohub,2013-09-10 19:17:00,
2013-09-10 15:22:00,71.8,68.7,30.12,SW,225,2.0,10.0,90,0.00,,,0.09,meteohub,2013-09-10 19:22:00,
2013-09-10 15:27:00,72.1,68.7,30.12,SW,225,5.0,10.0,89,0.00,,,0.09,meteohub,2013-09-10 19:27:00,
2013-09-10 15:32:00,72.7,68.9,30.12,South,180,4.0,8.0,88,0.00,,,0.09,meteohub,2013-09-10 19:32:00,
2013-09-10 15:37:00,73.0,68.5,30.12,SSE,158,3.0,8.0,86,0.00,,,0.09,meteohub,2013-09-10 19:37:00,
2013-09-10 15:42:00,73.4,68.9,30.12,WSW,248,2.0,8.0,86,0.00,,,0.09,meteohub,2013-09-10 19:42:00,
2013-09-10 15:47:00,73.6,68.7,30.12,SSW,202,0.0,8.0,85,0.00,,,0.09,meteohub,2013-09-10 19:47:00,
2013-09-10 15:52:00,73.8,68.4,30.12,SSW,202,2.0,9.0,83,0.00,,,0.09,meteohub,2013-09-10 19:52:00,
2013-09-10 15:57:00,73.8,68.5,30.12,SSW,202,1.0,9.0,84,0.00,,,0.09,meteohub,2013-09-10 19:57:00,
2013-09-10 16:02:00,73.9,68.7,30.14,NNW,338,2.0,9.0,84,0.00,,,0.09,meteohub,2013-09-10 20:02:00,
2013-09-10 16:07:00,74.1,68.9,30.14,WSW,248,4.0,6.0,84,0.00,,,0.09,meteohub,2013-09-10 20:07:00,
2013-09-10 16:12:00,74.3,68.7,30.14,WSW,248,6.0,6.0,83,0.00,,,0.09,meteohub,2013-09-10 20:12:00,
2013-09-10 16:17:00,74.3,68.4,30.12,SSE,158,4.0,7.0,82,0.00,,,0.09,meteohub,2013-09-10 20:17:00,
2013-09-10 16:22:00,74.3,68.4,30.12,WSW,248,4.0,7.0,82,0.00,,,0.09,meteohub,2013-09-10 20:22:00,
2013-09-10 16:27:00,74.3,67.6,30.12,WSW,248,4.0,11.0,80,0.00,,,0.09,meteohub,2013-09-10 20:27:00,
2013-09-10 16:32:00,74.1,67.1,30.12,WSW,248,2.0,11.0,79,0.00,,,0.09,meteohub,2013-09-10 20:32:00,
2013-09-10 16:37:00,73.9,67.1,30.12,WSW,248,3.0,11.0,79,0.00,,,0.09,meteohub,2013-09-10 20:37:00,
2013-09-10 16:42:00,73.8,67.3,30.12,WSW,248,4.0,8.0,80,0.00,,,0.09,meteohub,2013-09-10 20:42:00,
2013-09-10 16:47:00,73.9,67.5,30.12,WSW,248,1.0,9.0,80,0.00,,,0.09,meteohub,2013-09-10 20:47:00,
2013-09-10 16:52:00,73.9,67.5,30.12,South,180,8.0,9.0,80,0.00,,,0.09,meteohub,2013-09-10 20:52:00,
2013-09-10 16:57:00,73.8,67.3,30.12,SSE,158,4.0,8.0,80,0.00,,,0.09,meteohub,2013-09-10 20:57:00,
2013-09-10 17:02:00,73.8,66.9,30.12,SW,225,2.0,8.0,79,0.00,,,0.09,meteohub,2013-09-10 21:02:00,
2013-09-10 17:07:00,73.8,67.3,30.12,SSW,202,6.0,8.0,80,0.00,,,0.09,meteohub,2013-09-10 21:07:00,
2013-09-10 17:12:00,73.6,67.1,30.12,SSE,158,2.0,9.0,80,0.00,,,0.09,meteohub,2013-09-10 21:12:00,
2013-09-10 17:17:00,73.6,67.1,30.12,WSW,248,2.0,9.0,80,0.00,,,0.09,meteohub,2013-09-10 21:17:00,
2013-09-10 17:22:00,73.4,67.3,30.12,WSW,248,4.0,9.0,81,0.00,,,0.09,meteohub,2013-09-10 21:22:00,
2013-09-10 17:27:00,73.2,67.1,30.12,WSW,248,0.0,7.0,81,0.00,,,0.09,meteohub,2013-09-10 21:27:00,
2013-09-10 17:32:00,73.0,67.3,30.12,WSW,248,2.0,9.0,82,0.00,,,0.09,meteohub,2013-09-10 21:32:00,
2013-09-10 17:37:00,73.0,67.3,30.12,WSW,248,3.0,9.0,82,0.00,,,0.09,meteohub,2013-09-10 21:37:00,
2013-09-10 17:42:00,72.9,67.5,30.12,SW,225,0.0,9.0,83,0.00,,,0.09,meteohub,2013-09-10 21:42:00,
2013-09-10 17:47:00,72.9,67.8,30.12,WSW,248,1.0,5.0,84,0.00,,,0.09,meteohub,2013-09-10 21:47:00,
2013-09-10 17:52:00,72.9,67.8,30.12,SW,225,1.0,6.0,84,0.00,,,0.09,meteohub,2013-09-10 21:52:00,
2013-09-10 17:57:00,72.7,67.6,30.12,South,180,1.0,6.0,84,0.00,,,0.09,meteohub,2013-09-10 21:57:00,
2013-09-10 18:02:00,72.7,67.8,30.12,SSE,158,6.0,9.0,85,0.00,,,0.09,meteohub,2013-09-10 22:02:00,
2013-09-10 18:07:00,72.7,67.8,30.12,SSW,202,3.0,9.0,85,0.00,,,0.09,meteohub,2013-09-10 22:07:00,
2013-09-10 18:12:00,72.7,67.8,30.12,SSW,202,4.0,9.0,85,0.00,,,0.09,meteohub,2013-09-10 22:12:00,
2013-09-10 18:17:00,72.7,67.8,30.12,South,180,1.0,7.0,85,0.00,,,0.09,meteohub,2013-09-10 22:17:00,
2013-09-10 18:22:00,72.7,68.2,30.12,South,180,0.0,7.0,86,0.00,,,0.09,meteohub,2013-09-10 22:22:00,
2013-09-10 18:27:00,72.7,68.2,30.12,SSW,202,2.0,6.0,86,0.00,,,0.09,meteohub,2013-09-10 22:27:00,
2013-09-10 18:32:00,72.7,68.2,30.12,SSW,202,5.0,6.0,86,0.00,,,0.09,meteohub,2013-09-10 22:32:00,
2013-09-10 18:37:00,72.5,68.0,30.12,South,180,0.0,6.0,86,0.00,,,0.09,meteohub,2013-09-10 22:37:00,
2013-09-10 18:42:00,72.5,68.0,30.12,South,180,1.0,5.0,86,0.00,,,0.09,meteohub,2013-09-10 22:42:00,
2013-09-10 18:47:00,72.5,68.0,30.12,South,180,3.0,5.0,86,0.00,,,0.09,meteohub,2013-09-10 22:47:00,
2013-09-10 18:52:00,72.5,68.0,30.12,South,180,3.0,5.0,86,0.00,,,0.09,meteohub,2013-09-10 22:52:00,
2013-09-10 18:57:00,72.5,68.4,30.12,South,180,0.0,3.0,87,0.00,,,0.09,meteohub,2013-09-10 22:57:00,
2013-09-10 19:02:00,72.5,68.4,30.12,South,180,0.0,4.0,87,0.00,,,0.09,meteohub,2013-09-10 23:02:00,
2013-09-10 19:07:00,72.5,68.4,30.12,ESE,112,1.0,4.0,87,0.00,,,0.09,meteohub,2013-09-10 23:07:00,
2013-09-10 19:12:00,72.3,68.2,30.12,SSW,202,2.0,4.0,87,0.00,,,0.09,meteohub,2013-09-10 23:12:00,
2013-09-10 19:17:00,72.3,68.2,30.12,South,180,0.0,4.0,87,0.00,,,0.09,meteohub,2013-09-10 23:17:00,
2013-09-10 19:22:00,72.3,68.5,30.12,SW,225,3.0,3.0,88,0.00,,,0.09,meteohub,2013-09-10 23:22:00,
2013-09-10 19:27:00,72.3,68.5,30.12,West,270,4.0,4.0,88,0.00,,,0.09,meteohub,2013-09-10 23:27:00,
2013-09-10 19:32:00,72.1,68.4,30.12,SW,225,1.0,5.0,88,0.00,,,0.09,meteohub,2013-09-10 23:32:00,
2013-09-10 19:37:00,72.1,68.4,30.12,South,180,0.0,5.0,88,0.00,,,0.09,meteohub,2013-09-10 23:37:00,
2013-09-10 19:42:00,72.1,68.7,30.12,South,180,3.0,5.0,89,0.00,,,0.09,meteohub,2013-09-10 23:42:00,
2013-09-10 19:47:00,72.1,68.7,30.12,South,180,0.0,5.0,89,0.00,,,0.09,meteohub,2013-09-10 23:47:00,
2013-09-10 19:52:00,72.1,68.7,30.12,ESE,112,3.0,5.0,89,0.00,,,0.09,meteohub,2013-09-10 23:52:00,
2013-09-10 19:57:00,72.0,68.5,30.12,WSW,248,0.0,5.0,89,0.00,,,0.09,meteohub,2013-09-10 23:57:00,
2013-09-10 20:02:00,72.0,68.5,30.12,West,270,0.0,5.0,89,0.00,,,0.09,meteohub,2013-09-11 00:02:00,
2013-09-10 20:07:00,72.0,68.9,30.12,SSE,158,0.0,5.0,90,0.00,,,0.00,meteohub,2013-09-11 00:07:00,
2013-09-10 20:12:00,72.0,68.5,30.12,South,180,0.0,4.0,89,0.00,,,0.00,meteohub,2013-09-11 00:12:00,
2013-09-10 20:17:00,72.0,68.9,30.09,South,180,0.0,4.0,90,0.00,,,0.00,meteohub,2013-09-11 00:17:00,
2013-09-10 20:22:00,72.0,68.5,30.09,South,180,0.0,3.0,89,0.00,,,0.00,meteohub,2013-09-11 00:22:00,
2013-09-10 20:27:00,72.0,68.9,30.09,SSE,158,0.0,2.0,90,0.00,,,0.00,meteohub,2013-09-11 00:27:00,
2013-09-10 20:32:00,72.0,68.9,30.12,SSE,158,0.0,2.0,90,0.00,,,0.00,meteohub,2013-09-11 00:32:00,
2013-09-10 20:37:00,72.0,68.9,30.12,South,180,0.0,0.0,90,0.00,,,0.00,meteohub,2013-09-11 00:37:00,
2013-09-10 20:42:00,72.0,68.9,30.12,South,180,0.0,1.0,90,0.00,,,0.00,meteohub,2013-09-11 00:42:00,
2013-09-10 20:47:00,72.0,68.9,30.14,SSE,158,0.0,1.0,90,0.00,,,0.00,meteohub,2013-09-11 00:47:00,
2013-09-10 20:52:00,72.0,68.9,30.14,SSE,158,0.0,1.0,90,0.00,,,0.00,meteohub,2013-09-11 00:52:00,
2013-09-10 20:57:00,71.8,68.7,30.14,SSE,158,0.0,0.0,90,0.00,,,0.00,meteohub,2013-09-11 00:57:00,
2013-09-10 21:02:00,71.8,68.7,30.14,SSE,158,0.0,0.0,90,0.00,,,0.00,meteohub,2013-09-11 01:02:00,
2013-09-10 21:07:00,71.8,68.7,30.14,SSE,158,0.0,0.0,90,0.00,,,0.00,meteohub,2013-09-11 01:07:00,
2013-09-10 21:12:00,71.8,68.7,30.14,SSE,158,0.0,0.0,90,0.00,,,0.00,meteohub,2013-09-11 01:12:00,
2013-09-10 21:17:00,71.8,68.7,30.14,South,180,0.0,0.0,90,0.00,,,0.00,meteohub,2013-09-11 01:17:00,
2013-09-10 21:22:00,72.0,69.3,30.14,SSW,202,0.0,0.0,91,0.00,,,0.00,meteohub,2013-09-11 01:22:00,
2013-09-10 21:27:00,71.8,69.1,30.14,SSW,202,1.0,4.0,91,0.00,,,0.00,meteohub,2013-09-11 01:27:00,
2013-09-10 21:37:00,72.0,69.3,30.17,SSE,158,2.0,4.0,91,0.00,,,0.00,meteohub,2013-09-11 01:37:00,
2013-09-10 21:42:00,72.1,69.4,30.17,SW,225,0.0,4.0,91,0.00,,,0.00,meteohub,2013-09-11 01:42:00,
2013-09-10 21:47:00,72.1,69.4,30.17,South,180,1.0,4.0,91,0.00,,,0.00,meteohub,2013-09-11 01:47:00,
2013-09-10 21:52:00,72.1,69.4,30.17,South,180,0.0,3.0,91,0.00,,,0.00,meteohub,2013-09-11 01:52:00,
2013-09-10 21:57:00,72.1,69.4,30.17,South,180,5.0,5.0,91,0.00,,,0.00,meteohub,2013-09-11 01:57:00,
2013-09-10 22:02:00,72.1,69.4,30.17,SSE,158,0.0,5.0,91,0.00,,,0.00,meteohub,2013-09-11 02:02:00,
2013-09-10 22:07:00,72.1,69.4,30.17,SSW,202,0.0,5.0,91,0.00,,,0.00,meteohub,2013-09-11 02:07:00,
2013-09-10 22:12:00,72.0,69.3,30.17,South,180,0.0,5.0,91,0.00,,,0.00,meteohub,2013-09-11 02:12:00,
2013-09-10 22:17:00,72.0,69.3,30.17,South,180,0.0,4.0,91,0.00,,,0.00,meteohub,2013-09-11 02:17:00,
2013-09-10 22:22:00,72.0,69.3,30.17,South,180,0.0,3.0,91,0.00,,,0.00,meteohub,2013-09-11 02:22:00,
2013-09-10 22:27:00,71.8,69.1,30.17,SSW,202,0.0,3.0,91,0.00,,,0.00,meteohub,2013-09-11 02:27:00,
2013-09-10 22:32:00,71.6,69.1,30.14,South,180,1.0,3.0,92,0.00,,,0.00,meteohub,2013-09-11 02:32:00,
2013-09-10 22:37:00,71.6,69.1,30.14,South,180,0.0,1.0,92,0.00,,,0.00,meteohub,2013-09-11 02:37:00,
2013-09-10 22:42:00,71.6,69.1,30.14,SW,225,0.0,1.0,92,0.00,,,0.00,meteohub,2013-09-11 02:42:00,
2013-09-10 22:47:00,71.6,69.1,30.14,SSW,202,0.0,1.0,92,0.00,,,0.00,meteohub,2013-09-11 02:47:00,
2013-09-10 22:52:00,71.4,69.3,30.14,South,180,0.0,3.0,93,0.00,,,0.00,meteohub,2013-09-11 02:52:00,
2013-09-10 22:57:00,71.4,69.3,30.14,SSW,202,0.0,3.0,93,0.00,,,0.00,meteohub,2013-09-11 02:57:00,
2013-09-10 23:02:00,71.2,69.1,30.14,SSE,158,1.0,3.0,93,0.00,,,0.00,meteohub,2013-09-11 03:02:00,
2013-09-10 23:07:00,71.2,69.1,30.14,SSW,202,0.0,2.0,93,0.00,,,0.00,meteohub,2013-09-11 03:07:00,
2013-09-10 23:12:00,71.2,69.1,30.14,WSW,248,1.0,2.0,93,0.00,,,0.00,meteohub,2013-09-11 03:12:00,
2013-09-10 23:17:00,71.1,69.3,30.14,South,180,0.0,2.0,94,0.00,,,0.00,meteohub,2013-09-11 03:17:00,
2013-09-10 23:22:00,71.1,69.3,30.14,SSW,202,0.0,2.0,94,0.00,,,0.00,meteohub,2013-09-11 03:22:00,
2013-09-10 23:27:00,71.1,69.3,30.14,SSW,202,0.0,2.0,94,0.00,,,0.00,meteohub,2013-09-11 03:27:00,
2013-09-10 23:32:00,70.9,69.1,30.14,SSW,202,0.0,2.0,94,0.00,,,0.00,meteohub,2013-09-11 03:32:00,
2013-09-10 23:37:00,70.9,69.1,30.14,SSW,202,0.0,0.0,94,0.00,,,0.00,meteohub,2013-09-11 03:37:00,
2013-09-10 23:42:00,70.7,68.9,30.14,SSW,202,0.0,0.0,94,0.00,,,0.00,meteohub,2013-09-11 03:42:00,
2013-09-10 23:47:00,70.5,68.7,30.14,South,180,0.0,2.0,94,0.00,,,0.00,meteohub,2013-09-11 03:47:00,
2013-09-10 23:52:00,70.5,69.1,30.14,WSW,248,0.0,2.0,95,0.00,,,0.00,meteohub,2013-09-11 03:52:00,
2013-09-10 23:57:00,70.3,68.9,30.14,South,180,0.0,2.0,95,0.00,,,0.00,meteohub,2013-09-11 03:57:00,